FW4805 Weather Reports


time (UTC)temp
C
wind
direction
speed
KPH
gust
KPH
rain 1hr
cm
rain 24hr
cm
rain mn
cm
humidity
%
barometer
mb
20260508081959 21 261 12.9 20.9 0.00 0.00 0.00 50 1018.1
20260508080959 21 268 14.5 25.7 0.00 0.00 0.00 49 1018.2
20260508074958 21 272 8.0 16.1 0.00 0.00 0.00 47 1018.3
20260508073959 21 277 8.0 16.1 0.00 0.00 0.00 46 1018.2
20260508072959 21 272 9.7 17.7 0.00 0.00 0.00 45 1017.9
20260508071959 21 275 11.3 22.5 0.00 0.00 0.00 43 1018.0
20260508070959 21 270 1.6 11.3 0.00 0.00 0.00 43 1017.8
20260508065959 21 269 3.2 16.1 0.00 0.00 0.00 44 1017.9
20260508064959 20 92 0.0 3.2 0.00 0.00 0.00 50 1017.7
20260508063959 20 120 1.6 6.4 0.00 0.00 0.00 47 1017.4
20260508062959 20 144 1.6 9.7 0.00 0.00 0.00 50 1017.1
20260508061959 19 90 0.0 3.2 0.00 0.00 0.00 54 1017.1
20260508060959 19 0 0.0 0.0 0.00 0.00 0.00 61 1016.8
20260508055959 18 0 0.0 0.0 0.00 0.00 0.00 63 1016.6
20260508054959 18 0 0.0 0.0 0.00 0.00 0.00 63 1016.5
20260508052959 17 234 0.0 1.6 0.00 0.00 0.00 62 1016.3
20260508051959 17 203 0.0 1.6 0.00 0.00 0.00 62 1016.2
20260508050959 17 203 0.0 1.6 0.00 0.00 0.00 63 1016.1
20260508044959 16 265 0.0 1.6 0.00 0.00 0.00 61 1016.0
20260508043959 16 0 0.0 0.0 0.00 0.00 0.00 60 1015.9
20260508042959 16 227 0.0 1.6 0.00 0.00 0.00 61 1016.0
20260508041959 16 0 0.0 0.0 0.00 0.00 0.00 59 1016.1
20260508035959 16 147 0.0 1.6 0.00 0.00 0.00 54 1016.1
20260508034959 17 0 0.0 0.0 0.00 0.00 0.00 52 1016.0
20260508033959 17 0 0.0 0.0 0.00 0.00 0.00 52 1016.0
20260508032959 17 147 0.0 1.6 0.00 0.00 0.00 47 1016.0
20260508031959 18 147 0.0 1.6 0.00 0.00 0.00 44 1015.9
20260508030959 18 156 0.0 3.2 0.00 0.00 0.00 41 1015.6
20260508024959 19 271 3.2 8.0 0.00 0.00 0.00 39 1015.6
20260508023959 19 261 1.6 8.0 0.00 0.00 0.00 39 1015.5
20260508022959 19 261 3.2 12.9 0.00 0.00 0.00 39 1015.8
20260508020959 19 262 1.6 6.4 0.00 0.00 0.00 39 1015.8
20260508015959 19 264 1.6 6.4 0.00 0.00 0.00 39 1015.9
20260508014959 18 266 0.0 3.2 0.00 0.00 0.00 42 1016.1
20260508013959 18 260 3.2 8.0 0.00 0.00 0.00 43 1016.0
20260508013000 19 275 9.7 17.7 0.00 0.00 0.00 42 1016.0
20260508012000 20 267 6.4 17.7 0.00 0.00 0.00 40 1016.0
20260508011000 19 273 12.9 19.3 0.00 0.00 0.00 41 1015.8
20260508005959 20 269 6.4 20.9 0.00 0.00 0.00 39 1015.6
20260508004000 20 262 11.3 25.7 0.00 0.00 0.00 38 1016.0
20260508003000 20 262 12.9 22.5 0.00 0.00 0.00 38 1016.0
20260508002000 20 256 14.5 25.7 0.00 0.00 0.00 37 1016.0
20260508001000 20 257 14.5 20.9 0.00 0.00 0.00 37 1016.0
20260508000000 20 251 14.5 27.4 0.00 0.00 0.00 37 1016.0
20260507235000 20 247 16.1 25.7 0.00 0.00 0.00 36 1015.9
20260507234000 20 248 14.5 29.0 0.00 0.00 0.00 35 1016.1
20260507232959 20 250 14.5 29.0 0.00 0.00 0.00 35 1016.2
20260507231959 20 249 12.9 25.7 0.00 0.00 0.00 35 1016.4
20260507225959 20 247 11.3 22.5 0.00 0.00 0.00 37 1016.6
20260507224959 20 244 14.5 25.7 0.00 0.00 0.00 37 1016.5
20260507223959 20 246 17.7 25.7 0.00 0.00 0.00 38 1016.5
20260507222959 20 243 16.1 27.4 0.00 0.00 0.00 39 1016.9
20260507221959 20 240 14.5 29.0 0.00 0.00 0.00 39 1017.0
20260507220959 20 244 17.7 27.4 0.00 0.00 0.00 39 1016.9
20260507215959 20 244 20.9 32.2 0.00 0.00 0.00 38 1016.9
20260507214959 20 245 16.1 27.4 0.00 0.00 0.00 38 1016.9
20260507214000 20 246 17.7 29.0 0.00 0.00 0.00 39 1016.9
20260507213000 20 245 14.5 29.0 0.00 0.00 0.00 39 1016.9
20260507212000 20 242 14.5 25.7 0.00 0.00 0.00 39 1017.0
20260507211000 20 241 14.5 25.7 0.00 0.00 0.00 39 1016.9
20260507205000 20 241 16.1 25.7 0.00 0.00 0.00 39 1016.8
20260507203959 20 240 19.3 37.0 0.00 0.00 0.00 39 1016.8
20260507202959 20 240 16.1 32.2 0.00 0.00 0.00 38 1016.8
20260507201959 20 237 16.1 27.4 0.00 0.00 0.00 39 1016.7
20260507200959 20 242 19.3 35.4 0.00 0.00 0.00 40 1016.8
20260507195959 19 244 19.3 30.6 0.00 0.00 0.00 43 1016.9
20260507194959 19 251 20.9 32.2 0.00 0.00 0.00 44 1016.8
20260507193959 20 255 19.3 29.0 0.00 0.00 0.00 43 1016.9
20260507192000 20 261 19.3 25.7 0.00 0.00 0.00 42 1017.1
20260507191000 20 261 17.7 25.7 0.00 0.00 0.00 38 1016.9
20260507190000 20 258 14.5 20.9 0.00 0.00 0.00 37 1016.9
20260507185000 20 249 14.5 25.7 0.00 0.00 0.00 36 1016.9
20260507184000 20 243 14.5 25.7 0.00 0.00 0.00 35 1016.8
20260507183000 20 243 11.3 19.3 0.00 0.00 0.00 35 1016.8
20260507182000 20 240 9.7 19.3 0.00 0.00 0.00 34 1016.9
20260507181000 20 250 4.8 17.7 0.00 0.00 0.00 35 1016.8
20260507180000 20 249 6.4 20.9 0.00 0.00 0.00 34 1016.8
20260507175000 20 249 4.8 19.3 0.00 0.00 0.00 34 1016.8
20260507174000 20 248 8.0 17.7 0.00 0.00 0.00 34 1016.7
20260507172959 20 246 8.0 25.7 0.00 0.00 0.00 35 1016.8
20260507171959 20 253 9.7 22.5 0.00 0.00 0.00 34 1016.8
20260507171000 20 249 11.3 17.7 0.00 0.00 0.00 35 1016.6
20260507165959 21 249 11.3 20.9 0.00 0.00 0.00 36 1016.7
20260507164959 21 247 9.7 19.3 0.00 0.00 0.00 37 1016.7
20260507162000 21 248 6.4 22.5 0.00 0.00 0.00 37 1016.8
20260507161000 21 242 8.0 19.3 0.00 0.00 0.00 38 1016.8
20260507160000 22 231 8.0 19.3 0.00 0.00 0.00 38 1017.0
20260507155000 22 240 6.4 25.7 0.00 0.00 0.00 38 1016.8
20260507152959 21 242 11.3 27.4 0.00 0.00 0.00 39 1016.7
20260507152000 21 248 11.3 25.7 0.00 0.00 0.00 39 1016.7
20260507151000 21 248 16.1 29.0 0.00 0.00 0.00 39 1016.9
20260507145000 22 252 20.9 29.0 0.00 0.00 0.00 41 1016.6
20260507144000 22 247 20.9 27.4 0.00 0.00 0.00 40 1016.4
20260507143000 22 246 20.9 30.6 0.00 0.00 0.00 40 1016.4
20260507142000 22 249 20.9 27.4 0.00 0.00 0.00 41 1016.3
20260507141000 22 251 25.7 35.4 0.00 0.00 0.00 41 1016.4
20260507140000 22 252 24.1 29.0 0.00 0.00 0.00 41 1016.3
20260507135000 22 251 24.1 29.0 0.00 0.00 0.00 42 1016.6
20260507134000 22 248 25.7 30.6 0.00 0.00 0.00 39 1016.6
20260507133000 23 250 22.5 35.4 0.00 0.00 0.00 37 1016.6
20260507130000 23 254 20.9 32.2 0.00 0.00 0.00 37 1016.6
20260507125000 24 261 22.5 37.0 0.00 0.00 0.00 37 1016.6
20260507122959 23 263 24.1 37.0 0.00 0.00 0.00 32 1016.7
20260507122000 24 260 22.5 29.0 0.00 0.00 0.00 32 1016.9
20260507121000 23 264 25.7 38.6 0.00 0.00 0.00 34 1016.9
20260507120000 23 265 30.6 37.0 0.00 0.00 0.00 37 1017.1
20260507114000 23 270 27.4 40.2 0.00 0.00 0.00 34 1017.1
20260507113000 23 272 27.4 35.4 0.00 0.00 0.00 37 1017.0
20260507112000 23 270 27.4 40.2 0.00 0.00 0.00 38 1016.9
20260507111000 23 270 25.7 35.4 0.00 0.00 0.00 41 1016.9
20260507110000 23 268 25.7 29.0 0.00 0.00 0.00 39 1016.8
20260507104000 23 273 25.7 30.6 0.00 0.00 0.00 39 1016.8
20260507103000 23 268 27.4 29.0 0.00 0.00 0.00 35 1016.7
20260507102000 23 270 24.1 35.4 0.00 0.00 0.00 38 1016.7
20260507101000 23 278 24.1 32.2 0.00 0.00 0.00 39 1016.5
20260507095000 23 270 24.1 35.4 0.00 0.00 0.00 33 1016.4
20260507094000 23 270 25.7 30.6 0.00 0.00 0.00 34 1016.7
20260507093000 23 270 27.4 40.2 0.00 0.00 0.00 40 1016.8
20260507092001 23 265 24.1 38.6 0.00 0.00 0.00 43 1016.9
20260507091000 23 269 24.1 32.2 0.00 0.00 0.00 41 1017.0
20260507090000 23 264 24.1 35.4 0.00 0.00 0.00 41 1017.0
20260507085000 22 261 22.5 27.4 0.00 0.00 0.00 46 1016.9
20260507084000 22 265 24.1 30.6 0.00 0.00 0.00 45 1016.9